Molonglo, Australia

4:11 AM AEST on June 27, 2017 (GMT +1000)
Molonglo

Weather History for 94926 - August, 2013

Change the Weather History Date:

Thursday, August 29, 2013

  Actual Average Record
Temperature  
Mean Temperature 52 °F -  
Max Temperature 66 °F 61 °F - ()
Min Temperature 38 °F 38 °F - ()
Degree Days  
Heating Degree Days 13    
Growing Degree Days 2 (Base 50)    
Moisture  
Dew Point 44 °F    
Average Humidity 73    
Maximum Humidity 100    
Minimum Humidity 41    
Precipitation  
Precipitation 0.31 in 0.07 in - ()
Sea Level Pressure  
Sea Level Pressure 30.12 in    
Wind  
Wind Speed 5 mph ()    
Max Wind Speed 10 mph    
Max Gust Speed -    
Visibility 6.1 miles    
Events Rain    
T = Trace of Precipitation, MM = Missing Value Source: Averaged Metar Reports

Daily Weather History Graph

Daily Weather History Graph

Search for Another Location

Airport or City:

Trip Planner

Search our weather history database for the weather conditions in past years. The results will help you decide how hot, cold, wet, or windy it might be!

Date:

Astronomy

Aug. 29, 2013 Rise Set
Actual Time 6:27 AM AEST 5:41 PM AEST
Civil Twilight 6:01 AM AEST 6:07 PM AEST
Nautical Twilight 5:32 AM AEST 6:37 PM AEST
Astronomical Twilight 5:02 AM AEST 7:06 PM AEST
Moon 12:59 AM AEST (8/29) 11:22 AM AEST (8/29)
Length of Visible Light 12h 05m
Length of Day
11h 14m
Last Quarter, 43% of the Moon is Illuminated
Aug 29
Last Quarter
Sep 5
New
Sep 13
First Quarter
Sep 19
Full
Sep 27
Last Quarter

Hourly Weather History & Observations

Time (AEST) Temp. Windchill Dew Point Humidity Pressure Visibility Wind Dir Wind Speed Gust Speed Precip Events Conditions
12:00 AM 43 °F - 42 °F 96% 30.25 in - ESE 5.8 mph - -  
12:00 AM 42.8 °F 39.3 °F 42.8 °F 100% 30.21 in 6.2 mi ESE 5.8 mph - N/A   Scattered Clouds
12:30 AM 42.8 °F 39.3 °F 41.0 °F 93% 30.21 in 6.2 mi SE 5.8 mph - N/A   Unknown
1:00 AM 44 °F - 44 °F 98% 30.26 in - South 1.2 mph - -  
1:00 AM 44.6 °F - 44.6 °F 100% 30.21 in 6.2 mi South 1.2 mph - N/A   Mostly Cloudy
1:30 AM 44.6 °F 41.4 °F 42.8 °F 93% 30.21 in 6.2 mi SW 5.8 mph - N/A   Scattered Clouds
2:00 AM 42.8 °F 39.3 °F 41.0 °F 93% 30.21 in 6.2 mi WSW 5.8 mph - N/A   Unknown
2:30 AM 42.8 °F 38.6 °F 41.0 °F 93% 30.18 in 6.2 mi SE 6.9 mph - N/A   Unknown
3:00 AM 42 °F - 40 °F 91% 30.24 in - ESE 8.9 mph - -  
3:00 AM 41.0 °F 38.0 °F 41.0 °F 100% 30.21 in 6.2 mi ESE 4.6 mph - N/A   Unknown
3:14 AM 39.2 °F 34.2 °F 37.4 °F 93% 30.21 in 3.1 mi WNW 6.9 mph - N/A   Unknown
3:30 AM 39.2 °F 34.2 °F 39.2 °F 100% 30.21 in 6.2 mi ENE 6.9 mph - N/A   Scattered Clouds
3:33 AM 41.0 °F 35.8 °F 39.2 °F 93% 30.18 in 6.2 mi ENE 8.1 mph - N/A   Scattered Clouds
4:00 AM 44 °F - 43 °F 96% 30.24 in - South 4.6 mph - -  
4:00 AM 44.6 °F 42.2 °F 42.8 °F 93% 30.21 in 6.2 mi South 4.6 mph - N/A   Mostly Cloudy
4:30 AM 42.8 °F 41.1 °F 41.0 °F 93% 30.21 in 6.2 mi SE 3.5 mph - N/A Rain Light Rain Showers
5:00 AM 44.6 °F 39.2 °F 44.6 °F 100% 30.18 in 6.2 mi East 10.4 mph - N/A Rain Light Rain Showers
5:30 AM 46.4 °F 43.5 °F 44.6 °F 93% 30.18 in 6.2 mi SSE 5.8 mph - N/A   Mostly Cloudy
6:00 AM 47 °F - 45 °F 90% 30.22 in - SE 6.9 mph - -  
6:00 AM 46.4 °F 42.9 °F 44.6 °F 93% 30.18 in 6.2 mi SE 6.9 mph - N/A   Mostly Cloudy
6:30 AM 44.6 °F 41.4 °F 42.8 °F 93% 30.18 in 6.2 mi South 5.8 mph - N/A   Mostly Cloudy
7:00 AM 46 °F - 43 °F 87% 30.23 in - ESE 8.1 mph - -  
7:00 AM 46.4 °F 42.4 °F 42.8 °F 87% 30.18 in - ESE 8.1 mph - N/A   Clear
7:30 AM 46.4 °F - 42.8 °F 87% 30.21 in - ESE 1.2 mph - N/A   Clear
8:00 AM 46.4 °F 44.3 °F 44.6 °F 93% 30.21 in - NNE 4.6 mph - N/A   Clear
8:30 AM 48.2 °F - 44.6 °F 87% 30.21 in - NE 4.6 mph - N/A   Clear
9:00 AM 51 °F - 46 °F 77% 30.24 in - SE 3.5 mph - -  
9:00 AM 51.8 °F - 46.4 °F 82% 30.21 in - SE 3.5 mph - N/A   Clear
9:30 AM 51.8 °F - 46.4 °F 82% 30.18 in - ESE 8.1 mph - N/A   Clear
10:00 AM 55 °F - 47 °F 66% 30.21 in - ESE 8.1 mph - -  
10:00 AM 55.4 °F - 46.4 °F 72% 30.18 in - ESE 8.1 mph - N/A   Clear
10:30 AM 55.4 °F - 46.4 °F 72% 30.15 in - SE 6.9 mph - N/A   Clear
11:00 AM 57.2 °F - 44.6 °F 63% 30.15 in - ESE 8.1 mph - N/A   Clear
11:30 AM 59.0 °F - 46.4 °F 63% 30.12 in - South 4.6 mph - N/A   Clear
12:00 PM 60 °F - 47 °F 51% 30.15 in - WSW 3.5 mph - -  
12:00 PM 59.0 °F - 46.4 °F 63% 30.09 in - WSW 3.5 mph - N/A   Clear
12:30 PM 60.8 °F - 46.4 °F 59% 30.09 in - West 6.9 mph - N/A   Clear
1:00 PM 61 °F - 46 °F 47% 30.11 in - WSW 5.8 mph - -  
1:00 PM 60.8 °F - 46.4 °F 59% 30.06 in - WSW 5.8 mph - N/A   Clear
1:30 PM 62.6 °F - 46.4 °F 55% 30.06 in - SW 5.8 mph - N/A   Clear
2:00 PM 64.4 °F - 48.2 °F 56% 30.04 in - WSW 5.8 mph - N/A   Clear
2:30 PM 64.4 °F - 46.4 °F 52% 30.04 in - WSW 3.5 mph - N/A   Clear
3:00 PM 65 °F - 48 °F 43% 30.07 in - West 4.6 mph - -  
3:00 PM 64.4 °F - 48.2 °F 56% 30.04 in - West 4.6 mph - N/A   Clear
3:30 PM 64.4 °F - 46.4 °F 52% 30.01 in - SSW 3.5 mph - N/A   Clear
4:00 PM 65 °F - 47 °F 41% 30.04 in - West 5.8 mph - -  
4:00 PM 66.2 °F - 46.4 °F 49% 30.01 in - West 5.8 mph - N/A   Clear
4:30 PM 64.4 °F - 44.6 °F 49% 30.01 in - NE 10.4 mph - N/A   Clear
5:00 PM 62.6 °F - 42.8 °F 48% 30.01 in - NE 8.1 mph - N/A   Clear
5:30 PM 59.0 °F - 41.0 °F 51% 30.01 in - NE 8.1 mph - N/A   Clear
6:00 PM 59 °F - 43 °F 43% 30.05 in - NNE 5.8 mph - -  
6:00 PM 59.0 °F - 42.8 °F 55% 30.01 in - NNE 5.8 mph - N/A   Clear
6:30 PM 59.0 °F - 42.8 °F 55% 30.01 in - NE 5.8 mph - N/A   Clear
7:00 PM 58 °F - 44 °F 48% 30.03 in - NE 6.9 mph - -  
7:00 PM 57.2 °F - 44.6 °F 63% 29.98 in - NE 6.9 mph - N/A   Clear
7:30 PM 57.2 °F - 44.6 °F 63% 29.98 in - NNE 3.5 mph - N/A   Clear
8:00 PM 55.4 °F - 44.6 °F 67% 29.98 in - SSE 3.5 mph - N/A   Clear
8:30 PM 55.4 °F - 46.4 °F 72% 29.98 in - ESE 4.6 mph - N/A   Clear
9:00 PM 57 °F - 47 °F 60% 30.01 in - NE 1.2 mph - -  
9:00 PM 57.2 °F - 46.4 °F 67% 29.98 in 6.2 mi NE 1.2 mph - N/A   Scattered Clouds
9:30 PM 57.2 °F - 46.4 °F 67% 29.98 in 6.2 mi NNW 4.6 mph - N/A   Mostly Cloudy
10:00 PM 56 °F - 46 °F 61% 30.00 in - East 6.9 mph - -  
10:00 PM 55.4 °F - 46.4 °F 72% 29.98 in 6.2 mi East 6.9 mph - N/A   Overcast
10:30 PM 57.2 °F - 46.4 °F 67% 29.98 in 6.2 mi North 5.8 mph - N/A Rain Light Rain Showers
11:00 PM 57.2 °F - 46.4 °F 67% 29.98 in 6.2 mi NNE 6.9 mph - N/A Rain Light Rain Showers
11:30 PM 57.2 °F - 46.4 °F 67% 29.95 in 6.2 mi NNE 10.4 mph - N/A Rain Light Rain Showers